{"data":{"norad_id":67566,"intl_designator":"2026-016F","name":"STARLINK-36394","alt_names":[],"object_type":"PAYLOAD","status":"ACTIVE","operator":null,"country":"US","launch_date":"2026-01-25","launch_site_code":"AFWTR","launch_vehicle":null,"mission":null,"orbit_class":"UNKNOWN","rcs_meters":null,"size_class":null,"mass_kg":null,"dimensions":null,"purposes":["comms"],"wikipedia_slug":null,"has_3d_model":false,"image_url":null,"decayed_at":null,"tle_current":{"epoch":"2026-05-25T02:31:56.148672Z","epoch_age_seconds":66707,"freshness":"FRESH","line1":"1 67566U 26016F   26145.10551098  .00018348  00000+0  56882-3 0  9997","line2":"2 67566  97.2846 205.4146 0000323 162.2198 197.9056 15.33471280 18579","mean_motion":15.3347128,"eccentricity":3.23e-5,"inclination_deg":97.2846,"raan_deg":205.4146,"arg_perigee_deg":162.2198,"mean_anomaly_deg":197.9056,"bstar":0.00056882,"rev_number":1857,"period_min":93.904595330928,"perigee_km":465.24393646025,"apogee_km":465.68603314846,"semimajor_km":6843.6019848044,"source":"CELESTRAK","updated_at":"2026-05-25T13:38:21.613549Z"}}}